The Dalles, WA

7:21 PM PDT on April 28, 2017 (GMT -0700)
Columbia Gorge Regional-The Dalles

Weather History for KDLS - March, 2014

Change the Weather History Date:

Tuesday, March 4, 2014

  Actual Average Record
Temperature  
Mean Temperature 48 °F -  
Max Temperature 61 °F 51 °F 69 °F (1986)
Min Temperature 35 °F 35 °F 15 °F (1960)
Degree Days  
Heating Degree Days 17    
Moisture  
Dew Point 40 °F    
Average Humidity 86    
Maximum Humidity 100    
Minimum Humidity 56    
Precipitation  
Precipitation 0.00 in - - ()
Sea Level Pressure  
Sea Level Pressure 29.98 in    
Wind  
Wind Speed 3 mph (NW)    
Max Wind Speed 17 mph    
Max Gust Speed 25 mph    
Visibility 6 miles    
Events Fog    
Averages and records for this station are not official NWS values.
T = Trace of Precipitation, MM = Missing Value Source: NWS Daily Summary

Daily Weather History Graph

Daily Weather History Graph

Search for Another Location

Airport or City:

Trip Planner

Search our weather history database for the weather conditions in past years. The results will help you decide how hot, cold, wet, or windy it might be!

Date:

Astronomy

Mar. 04, 2014 Rise Set
Actual Time 6:37 AM PST 5:55 PM PST
Civil Twilight 6:07 AM PST 6:25 PM PST
Nautical Twilight 5:33 AM PST 6:59 PM PST
Astronomical Twilight 4:59 AM PST 7:34 PM PST
Moon 8:14 AM PST (3/4) 10:23 PM PST (3/4)
Length of Visible Light 12h 17m
Length of Day
11h 18m
Waxing Crescent, 15% of the Moon is Illuminated
Mar 4
Waxing Crescent
Mar 8
First Quarter
Mar 16
Full
Mar 23
Last Quarter
Mar 30
New

Hourly Weather History & Observations

Time (PST) Temp. Windchill Dew Point Humidity Pressure Visibility Wind Dir Wind Speed Gust Speed Precip Events Conditions
12:21 AM 37.9 °F 35.5 °F 37.0 °F 97% 29.96 in 2.5 mi Variable 3.5 mph - N/A   Overcast
12:38 AM 39.0 °F 36.8 °F 37.9 °F 96% 29.96 in 3.0 mi Variable 3.5 mph - N/A   Overcast
12:53 AM 39.0 °F 36.8 °F 37.9 °F 96% 29.96 in 6.0 mi WNW 3.5 mph - N/A   Overcast
1:53 AM 39.0 °F - 37.9 °F 96% 29.98 in 9.0 mi Calm Calm - N/A   Overcast
2:53 AM 39.9 °F - 37.9 °F 93% 29.97 in 8.0 mi Calm Calm - N/A   Mostly Cloudy
3:53 AM 39.9 °F - 39.0 °F 97% 29.99 in 10.0 mi Calm Calm - N/A   Overcast
4:53 AM 37.9 °F - 37.0 °F 97% 30.00 in 7.0 mi Calm Calm - N/A   Overcast
5:26 AM 37.9 °F - 37.0 °F 97% 30.00 in 1.8 mi Calm Calm - N/A   Scattered Clouds
5:37 AM 37.0 °F - 36.0 °F 96% 30.00 in 0.8 mi Calm Calm - N/A   Clear
5:48 AM 37.4 °F - 35.6 °F 93% 30.00 in 1.0 mi Calm Calm - N/A   Clear
5:53 AM 37.0 °F 34.5 °F 36.0 °F 96% 30.01 in 0.8 mi West 3.5 mph - N/A   Clear
6:01 AM 37.0 °F - 36.0 °F 96% 30.00 in 2.0 mi Calm Calm - N/A   Clear
6:13 AM 37.0 °F - 36.0 °F 96% 30.00 in 1.8 mi Calm Calm - N/A   Clear
6:25 AM 37.9 °F - 37.0 °F 97% 30.00 in 0.5 mi Calm Calm - N/A Fog Fog
6:53 AM 36.0 °F - 35.1 °F 97% 30.01 in 0.2 mi Calm Calm - N/A Fog Fog
7:02 AM 35.1 °F - 35.1 °F 100% 30.00 in 2.5 mi Calm Calm - N/A   Mostly Cloudy
7:07 AM 35.1 °F - 34.0 °F 96% 30.00 in 2.5 mi Calm Calm - N/A   Scattered Clouds
7:09 AM 35.1 °F - 34.0 °F 96% 30.00 in 0.8 mi Calm Calm - N/A   Scattered Clouds
7:18 AM 35.1 °F - 35.1 °F 100% 30.00 in 0.5 mi Calm Calm - N/A Fog Fog
7:21 AM 37.0 °F - 36.0 °F 96% 30.01 in 1.2 mi Calm Calm - N/A   Partly Cloudy
7:25 AM 37.0 °F - 37.0 °F 100% 30.01 in 4.0 mi Calm Calm - N/A   Clear
7:53 AM 39.0 °F - 39.0 °F 100% 30.03 in 5.0 mi Calm Calm - N/A   Clear
8:53 AM 42.1 °F - 39.9 °F 92% 30.03 in 10.0 mi Calm Calm - N/A   Clear
9:53 AM 48.0 °F - 42.1 °F 80% 30.03 in 10.0 mi NW 3.5 mph - N/A   Mostly Cloudy
10:53 AM 52.0 °F - 44.1 °F 74% 30.01 in 10.0 mi Calm Calm - N/A   Scattered Clouds
11:53 AM 57.9 °F - 45.0 °F 62% 29.98 in 10.0 mi North 11.5 mph - N/A   Clear
12:20 PM 57.9 °F - 45.0 °F 62% 29.98 in 10.0 mi North 6.9 mph - N/A   Partly Cloudy
12:53 PM 61.0 °F - 45.0 °F 56% 29.97 in 10.0 mi Calm Calm - N/A   Mostly Cloudy
1:53 PM 61.0 °F - 46.0 °F 58% 29.95 in 10.0 mi NW 15.0 mph - N/A   Mostly Cloudy
2:53 PM 60.1 °F - 46.0 °F 60% 29.95 in 10.0 mi NNW 17.3 mph 25.3 mph N/A   Scattered Clouds
3:53 PM 60.1 °F - 46.0 °F 60% 29.95 in 10.0 mi NW 12.7 mph - N/A   Partly Cloudy
4:53 PM 57.9 °F - 45.0 °F 62% 29.94 in 10.0 mi NW 9.2 mph - N/A   Overcast
5:53 PM 57.0 °F - 45.0 °F 64% 29.94 in 10.0 mi West 5.8 mph - N/A   Overcast
6:53 PM 55.0 °F - 45.0 °F 69% 29.95 in 10.0 mi West 8.1 mph - N/A   Mostly Cloudy
7:53 PM 52.0 °F - 45.0 °F 77% 29.94 in 10.0 mi Calm Calm - N/A   Partly Cloudy
8:53 PM 48.9 °F - 45.0 °F 86% 29.95 in 10.0 mi Calm Calm - N/A   Clear
9:53 PM 48.0 °F - 44.1 °F 86% 29.93 in 10.0 mi North 3.5 mph - N/A   Clear
10:53 PM 46.0 °F 44.8 °F 44.1 °F 93% 29.93 in 10.0 mi NW 3.5 mph - N/A   Partly Cloudy
11:53 PM 46.0 °F 44.8 °F 43.0 °F 89% 29.91 in 10.0 mi North 3.5 mph - N/A   Partly Cloudy